{"data":{"norad_id":66121,"epoch":"2026-09-20T07:20:37.656096Z","epoch_age_seconds":117150,"freshness":"FRESH","line1":"1 66121U 25237H   26263.30599139  .00024445  00000+0  73194-3 0  9998","line2":"2 66121  53.1572 214.4852 0001555  85.7037 274.4143 15.34414288 52421","mean_motion":15.34414288,"eccentricity":0.0001555,"inclination_deg":53.1572,"raan_deg":214.4852,"arg_perigee_deg":85.7037,"mean_anomaly_deg":274.4143,"bstar":0.00073194,"rev_number":5242,"period_min":93.846884199504,"perigee_km":461.59702953579,"apogee_km":463.72451764337,"semimajor_km":6840.7977735896,"source":"CELESTRAK","updated_at":"2026-09-21T09:00:35.807595Z"}}